Terug naar catalogus

SECOR 5

EGRS 5

ActiefWetenschapUNKNOWN
NORAD 1506·PAYLOAD·🇺🇸 United States

Gelanceerd Aug 10, 1965 vanaf Wallops Flight Facility

Loading…

Volgende Passages (komende 24 uur)

TLE

VersSource: Space-Track

Epoch: Sep 14, 2026, 13:01 UTC

1 01506U 65063A   26257.54250002 -.00000012  00000-0  12484-3 0  9998
2 01506  69.2301 113.0403 0785854  92.3907 288.2671 11.78694336628787

Volg SECOR 5 in realtime met AllMySat

Download on the App Store